• In Hungary
  • List of Countries
  • For 7 days
  • Water Temperature
  • Satellite Maps
  • Weather Map
  • News
  • Weather Widgets
  • user-avatar
    Login

    Hourly Weather La Louviere

    Today, 21 February, Wednesday

    Time Temperature Precipitation Wind Pressure Humidity
    00:00 -2°C° 0 mm 3 mps 757 mmHg 80%
    01:00 -2°C° 0 mm 3 mps 758 mmHg 82%
    02:00 -2°C° 0 mm 3 mps 758 mmHg 83%
    03:00 -4°C° 0 mm 3 mps 758 mmHg 84%
    04:00 -4°C° 0 mm 3 mps 758 mmHg 85%
    05:00 -4°C° 0 mm 3 mps 758 mmHg 85%
    06:00 -4°C° 0 mm 3 mps 758 mmHg 86%
    07:00 -2°C° 0 mm 3 mps 759 mmHg 80%
    08:00 -2°C° 0 mm 4 mps 759 mmHg 74%
    09:00 -1°C° 0 mm 4 mps 759 mmHg 68%
    10:00 0°C° 0 mm 4 mps 759 mmHg 63%
    11:00 +1°C° 0 mm 4 mps 759 mmHg 59%
    12:00 +4°C° 0 mm 4 mps 759 mmHg 54%
    13:00 +4°C° 0 mm 4 mps 758 mmHg 54%
    14:00 +4°C° 0 mm 4 mps 758 mmHg 54%
    15:00 +4°C° 0 mm 4 mps 758 mmHg 54%
    16:00 +1°C° 0 mm 4 mps 758 mmHg 59%
    17:00 0°C° 0 mm 4 mps 758 mmHg 64%
    18:00 0°C° 0 mm 3 mps 758 mmHg 70%
    19:00 -1°C° 0 mm 3 mps 758 mmHg 71%
    20:00 -1°C° 0 mm 3 mps 758 mmHg 73%
    21:00 -2°C° 0 mm 3 mps 758 mmHg 74%
    22:00 -2°C° 0 mm 3 mps 758 mmHg 76%
    23:00 -2°C° 0 mm 3 mps 758 mmHg 77%

    Tomorrow, 22 February, Thursday

    Time Temperature Precipitation Wind Pressure Humidity
    00:00 -4°C° 0 mm 3 mps 758 mmHg 78%
    01:00 -4°C° 0 mm 3 mps 758 mmHg 79%
    02:00 -4°C° 0 mm 3 mps 758 mmHg 79%
    03:00 -4°C° 0 mm 3 mps 757 mmHg 80%
    04:00 -4°C° 0 mm 3 mps 757 mmHg 80%
    05:00 -4°C° 0 mm 3 mps 757 mmHg 79%
    06:00 -4°C° 0 mm 4 mps 757 mmHg 79%
    07:00 -3°C° 0 mm 4 mps 757 mmHg 72%
    08:00 -2°C° 0 mm 5 mps 757 mmHg 65%
    09:00 -1°C° 0 mm 5 mps 758 mmHg 59%
    10:00 -1°C° 0 mm 6 mps 757 mmHg 52%
    11:00 +1°C° 0 mm 6 mps 757 mmHg 46%
    12:00 +2°C° 0 mm 6 mps 757 mmHg 40%
    13:00 +2°C° 0 mm 6 mps 756 mmHg 40%
    14:00 +2°C° 0 mm 6 mps 756 mmHg 39%
    15:00 +2°C° 0 mm 6 mps 756 mmHg 39%
    16:00 +1°C° 0 mm 6 mps 756 mmHg 44%
    17:00 0°C° 0 mm 5 mps 756 mmHg 49%
    18:00 -2°C° 0 mm 4 mps 756 mmHg 54%
    19:00 -2°C° 0 mm 4 mps 757 mmHg 57%
    20:00 -2°C° 0 mm 5 mps 757 mmHg 59%
    21:00 -4°C° 0 mm 5 mps 757 mmHg 62%
    22:00 -3°C° 0 mm 4 mps 757 mmHg 64%
    23:00 -3°C° 0 mm 4 mps 757 mmHg 66%

    Day after tomorrow, 23 February, Friday

    Time Temperature Precipitation Wind Pressure Humidity
    00:00 -4°C° 0 mm 4 mps 757 mmHg 68%
    01:00 -4°C° 0 mm 4 mps 757 mmHg 69%
    02:00 -4°C° 0 mm 4 mps 757 mmHg 71%
    03:00 -4°C° 0 mm 4 mps 756 mmHg 72%
    04:00 -5°C° 0 mm 5 mps 756 mmHg 72%
    05:00 -5°C° 0 mm 5 mps 757 mmHg 72%
    06:00 -6°C° 0 mm 5 mps 757 mmHg 71%
    07:00 -5°C° 0 mm 5 mps 757 mmHg 65%
    08:00 -4°C° 0 mm 6 mps 757 mmHg 59%
    09:00 -3°C° 0 mm 6 mps 757 mmHg 53%
    10:00 -2°C° 0 mm 6 mps 757 mmHg 48%
    11:00 -1°C° 0 mm 6 mps 756 mmHg 43%
    12:00 +1°C° 0 mm 6 mps 756 mmHg 38%
    13:00 +2°C° 0 mm 6 mps 756 mmHg 37%
    14:00 +2°C° 0 mm 6 mps 756 mmHg 36%
    15:00 +2°C° 0 mm 6 mps 755 mmHg 35%
    16:00 +1°C° 0 mm 6 mps 755 mmHg 38%
    17:00 -1°C° 0 mm 5 mps 755 mmHg 42%
    18:00 -2°C° 0 mm 4 mps 755 mmHg 45%
    19:00 -2°C° 0 mm 5 mps 756 mmHg 45%
    20:00 -4°C° 0 mm 5 mps 756 mmHg 46%
    21:00 -4°C° 0 mm 5 mps 756 mmHg 46%
    22:00 -4°C° 0 mm 5 mps 756 mmHg 46%
    23:00 -5°C° 0 mm 5 mps 756 mmHg 47%

    24 February, Saturday

    Time Temperature Precipitation Wind Pressure Humidity
    00:00 -5°C° 0 mm 5 mps 756 mmHg 47%
    01:00 -5°C° 0 mm 5 mps 756 mmHg 48%
    02:00 -5°C° 0 mm 5 mps 756 mmHg 48%
    03:00 -5°C° 0 mm 5 mps 755 mmHg 49%
    04:00 -5°C° 0 mm 5 mps 755 mmHg 48%
    05:00 -5°C° 0 mm 5 mps 755 mmHg 47%
    06:00 -5°C° 0 mm 5 mps 756 mmHg 47%
    07:00 -4°C° 0 mm 6 mps 756 mmHg 44%
    08:00 -3°C° 0 mm 6 mps 756 mmHg 41%
    09:00 -2°C° 0 mm 7 mps 756 mmHg 38%
    10:00 -1°C° 0 mm 7 mps 756 mmHg 37%
    11:00 0°C° 0 mm 7 mps 756 mmHg 36%
    12:00 +2°C° 0 mm 7 mps 756 mmHg 35%
    13:00 +3°C° 0 mm 7 mps 756 mmHg 35%
    14:00 +3°C° 0 mm 7 mps 755 mmHg 35%
    15:00 +3°C° 0 mm 7 mps 755 mmHg 35%
    16:00 +2°C° 0 mm 7 mps 756 mmHg 36%
    17:00 -1°C° 0 mm 6 mps 756 mmHg 38%
    18:00 -2°C° 0 mm 6 mps 756 mmHg 39%
    19:00 -3°C° 0 mm 6 mps 757 mmHg 39%
    20:00 -3°C° 0 mm 6 mps 757 mmHg 39%
    21:00 -4°C° 0 mm 6 mps 758 mmHg 39%
    22:00 -4°C° 0 mm 6 mps 758 mmHg 39%
    23:00 -5°C° 0 mm 6 mps 758 mmHg 38%

    25 February, Sunday

    Time Temperature Precipitation Wind Pressure Humidity
    00:00 -5°C° 0 mm 6 mps 758 mmHg 38%
    01:00 -5°C° 0 mm 6 mps 759 mmHg 39%
    02:00 -6°C° 0 mm 6 mps 759 mmHg 40%
    03:00 -6°C° 0 mm 6 mps 759 mmHg 41%
    04:00 -6°C° 0 mm 6 mps 759 mmHg 43%
    05:00 -6°C° 0 mm 6 mps 759 mmHg 45%
    06:00 -6°C° 0 mm 6 mps 760 mmHg 47%
    07:00 -7°C° 0 mm 7 mps 760 mmHg 43%
    08:00 -6°C° 0 mm 7 mps 760 mmHg 39%
    09:00 -6°C° 0 mm 7 mps 761 mmHg 35%
    10:00 -4°C° 0 mm 7 mps 761 mmHg 30%
    11:00 -3°C° 0 mm 7 mps 761 mmHg 26%
    12:00 -2°C° 0 mm 7 mps 761 mmHg 22%
    13:00 -2°C° 0 mm 7 mps 761 mmHg 22%
    14:00 -2°C° 0 mm 7 mps 761 mmHg 22%
    15:00 -2°C° 0 mm 7 mps 761 mmHg 22%
    16:00 -3°C° 0 mm 6 mps 761 mmHg 25%
    17:00 -4°C° 0 mm 6 mps 761 mmHg 28%
    18:00 -6°C° 0 mm 5 mps 762 mmHg 31%
    19:00 -6°C° 0 mm 5 mps 762 mmHg 31%
    20:00 -7°C° 0 mm 5 mps 762 mmHg 32%
    21:00 -7°C° 0 mm 5 mps 763 mmHg 33%
    22:00 -7°C° 0 mm 5 mps 763 mmHg 33%
    23:00 -7°C° 0 mm 5 mps 763 mmHg 33%

    26 February, Monday

    Time Temperature Precipitation Wind Pressure Humidity
    00:00 -8°C° 0 mm 4 mps 763 mmHg 33%
    01:00 -8°C° 0 mm 5 mps 763 mmHg 34%
    02:00 -8°C° 0 mm 5 mps 763 mmHg 35%
    03:00 -8°C° 0 mm 5 mps 763 mmHg 36%
    04:00 -8°C° 0 mm 5 mps 763 mmHg 38%
    05:00 -10°C° 0 mm 5 mps 763 mmHg 39%
    06:00 -10°C° 0 mm 5 mps 763 mmHg 41%
    07:00 -9°C° 0 mm 6 mps 763 mmHg 39%
    08:00 -9°C° 0 mm 6 mps 764 mmHg 38%
    09:00 -8°C° 0 mm 7 mps 764 mmHg 36%
    10:00 -7°C° 0 mm 7 mps 763 mmHg 34%
    11:00 -6°C° 0 mm 7 mps 763 mmHg 31%
    12:00 -6°C° 0 mm 7 mps 763 mmHg 28%
    13:00 -4°C° 0 mm 7 mps 763 mmHg 28%
    14:00 -4°C° 0 mm 7 mps 762 mmHg 27%
    15:00 -4°C° 0 mm 7 mps 762 mmHg 27%
    16:00 -5°C° 0 mm 6 mps 762 mmHg 30%
    17:00 -6°C° 0 mm 5 mps 761 mmHg 34%
    18:00 -7°C° 0 mm 5 mps 761 mmHg 37%
    19:00 -7°C° 0 mm 5 mps 761 mmHg 38%
    20:00 -8°C° 0 mm 5 mps 762 mmHg 40%
    21:00 -8°C° 0 mm 5 mps 762 mmHg 41%
    22:00 -8°C° 0 mm 5 mps 761 mmHg 42%
    23:00 -8°C° 0 mm 5 mps 761 mmHg 44%
    Show more